Helicity
48 50 48 49 43 42 39 33 30 41 38 62 69 83 98 45 52 -32 24 21 40 35 64 53 51 33 43 57 53 52 80 35 14 23 -13 143 222 219 198 243 191 194 146 88 311
37 39 48 56 52 48 36 45 33 42 44 62 72 87 102 37 -5 42 26 40 54 30 77 60 66 56 60 61 72 88 62 6 14 68 14 128 214 331 246 263 166 185 191 260 375
37 42 47 53 60 64 54 48 49 49 41 64 69 95 99 35 43 30 100 25 47 58 69 50 58 56 62 76 65 62 47 62 59 111 69 178 225 239 310 201 168 165 279 308 374
31 34 40 52 63 69 72 61 51 61 56 53 67 97 119 5 68 45 59 39 24 47 67 61 65 84 77 66 59 64 38 76 47 81 113 168 194 127 275 165 58 175 311 364 389
26 31 37 43 60 71 82 90 70 75 63 55 62 68 3 48 49 37 44 74 42 54 87 92 69 78 74 62 83 70 41 58 93 102 129 166 133 148 167 169 182 307 328 341 384
22 26 33 41 48 63 83 105 107 92 65 55 57 43 -9 26 45 57 78 105 55 68 105 91 96 56 76 52 60 40 81 90 99 127 154 166 132 175 129 237 270 306 299 340 408
21 18 27 37 43 66 92 104 126 96 62 55 32 -5 -5 55 50 91 65 88 72 59 112 114 119 76 90 65 85 67 94 106 112 140 140 156 99 128 240 262 288 289 303 351 418
24 17 20 38 48 69 92 106 124 88 66 51 17 8 -24 29 28 99 54 67 48 61 68 86 79 90 87 108 140 127 114 82 82 135 137 169 99 64 259 352 300 309 326 365 468
22 15 16 37 60 83 93 130 122 45 56 60 49 36 21 60 83 116 58 47 44 57 61 79 92 120 130 114 134 130 67 70 100 55 113 162 111 116 204 274 262 305 344 398 512
25 21 27 41 77 93 108 114 -14 9 67 69 76 67 40 82 116 142 118 81 61 71 75 103 127 139 155 148 114 116 96 60 30 38 126 178 144 184 202 247 237 333 366 468 574
37 28 39 50 85 97 67 38 42 36 60 73 59 60 60 121 88 114 123 101 81 107 92 108 135 115 107 109 133 104 87 73 61 60 100 143 170 151 189 219 234 327 428 551 635
42 36 45 70 99 112 18 33 25 13 18 -11 -35 -15 27 76 98 122 113 97 107 66 103 132 100 82 83 103 118 103 84 59 53 55 35 73 67 67 131 146 214 322 460 598 700
45 43 56 85 120 42 37 37 30 16 17 -5 -9 8 30 61 43 67 92 94 78 125 93 88 81 79 89 109 121 118 106 90 96 85 51 78 61 51 30 85 146 213 361 554 746
43 50 73 137 53 39 40 62 30 9 38 -11 -9 55 3 37 42 22 46 66 93 60 75 82 74 94 111 108 132 129 117 92 83 99 68 57 6 -19 32 67 57 90 319 455 581
62 56 81 76 34 48 54 69 22 32 50 -2 -9 19 7 12 46 103 50 96 53 49 75 46 65 95 134 119 96 83 68 65 85 88 91 49 96 1 69 31 35 39 248 352 464
66 66 77 45 41 41 69 62 44 87 50 41 22 30 41 45 38 31 48 89 38 50 70 32 31 40 72 96 96 85 116 131 115 112 126 74 102 32 36 16 45 27 186 333 388
72 72 59 41 45 64 64 75 110 89 86 66 26 28 47 49 59 34 57 84 82 97 83 61 40 44 51 79 94 131 150 101 101 127 69 50 70 40 36 34 15 80 195 262 408
84 82 45 28 56 89 82 113 118 97 103 85 55 49 45 46 67 121 105 94 104 70 68 55 89 31 46 52 42 82 92 99 89 86 62 57 44 35 32 38 139 148 248 328 384
95 69 62 50 61 73 111 122 104 128 130 123 73 73 84 91 94 134 115 106 79 67 42 42 41 18 18 38 42 46 79 71 128 127 113 56 81 47 93 68 133 167 223 246 209
94 91 90 95 77 107 125 101 107 137 171 122 67 61 62 92 119 146 116 116 81 49 20 30 56 30 22 31 60 45 48 104 106 78 56 89 107 92 180 122 116 111 123 134 167
110 108 108 102 126 141 97 97 121 143 155 137 100 78 66 78 117 164 140 125 101 64 65 38 46 37 44 74 56 85 91 105 96 120 116 102 83 138 118 32 101 69 111 144 172
119 116 118 116 148 129 85 91 147 173 173 163 121 107 77 66 121 134 144 113 157 91 74 53 40 55 43 63 94 114 121 120 124 118 158 139 116 64 25 59 74 125 144 117 120
135 113 124 117 95 105 99 95 146 163 171 168 154 123 75 71 93 126 126 125 156 107 92 55 62 58 68 67 114 128 129 99 100 113 128 164 157 88 75 98 119 138 101 95 126
146 117 132 127 105 77 87 85 136 148 145 150 143 106 95 102 122 98 108 117 117 83 78 52 67 74 66 94 122 172 208 132 97 141 140 176 168 130 85 83 89 116 113 114 146
167 124 99 84 93 90 106 93 132 165 150 152 154 131 78 84 88 87 93 74 62 46 24 30 63 136 207 224 247 196 192 183 122 81 81 78 55 41 36 57 66 103 126 150 180
159 140 149 94 76 129 104 77 84 143 137 142 108 117 94 60 54 4 35 31 7 21 4 -22 50 106 152 183 158 150 119 86 77 61 60 35 22 33 52 81 78 109 139 156 167
174 159 124 95 89 78 82 77 82 125 187 143 78 93 79 32 75 94 77 46 9 1 17 84 83 107 100 83 83 95 67 51 29 36 6 22 5 35 40 49 68 95 114 134 173
Wind_Speed
57 58 58 59 58 58 57 57 57 56 56 57 58 59 58 59 57 45 51 46 39 40 34 31 32 34 33 30 31 30 39 45 46 40 47 31 31 36 36 34 32 28 36 35 28
55 56 58 59 60 60 59 59 58 57 57 57 57 58 57 58 52 52 45 48 39 29 36 39 36 32 36 34 33 34 40 45 43 42 50 34 33 27 35 37 32 32 37 27 25
52 53 55 57 59 61 61 60 59 59 58 57 57 57 56 52 46 32 41 33 28 31 39 39 38 39 41 37 35 35 45 41 52 39 42 31 30 30 33 32 23 21 22 20 17
51 51 53 55 57 60 62 62 61 60 59 58 57 56 55 41 32 32 28 17 21 33 40 40 39 40 41 38 35 44 50 44 47 38 36 30 28 34 23 31 40 22 15 17 14
51 51 52 53 55 57 61 63 64 62 61 59 56 54 45 41 43 36 25 29 28 29 40 42 42 42 46 42 40 51 52 45 43 36 38 31 33 36 30 38 35 21 15 13 12
52 52 52 52 53 55 57 62 65 65 63 60 57 52 42 47 38 37 40 44 34 37 40 39 43 39 49 45 46 47 48 46 42 40 38 38 42 42 42 32 29 18 10 10 9
53 53 53 52 52 53 54 56 62 65 65 62 55 45 45 58 41 53 54 46 41 41 45 43 44 38 44 46 45 43 49 49 47 43 44 44 50 42 38 32 28 19 13 14 12
53 54 54 54 53 53 52 53 56 64 64 58 43 39 50 45 49 59 51 49 44 42 42 47 43 45 45 42 43 44 46 58 52 42 48 41 61 50 35 32 33 22 18 17 16
53 54 54 55 55 54 54 52 49 49 40 29 33 39 54 48 43 46 43 46 41 40 44 38 36 42 44 47 51 49 61 61 62 45 48 43 61 55 40 37 36 27 21 19 17
53 53 55 55 55 55 56 51 33 33 30 30 39 44 44 44 45 49 45 41 36 38 38 37 38 44 46 48 63 62 64 65 68 55 51 55 55 55 52 44 41 35 25 23 17
52 53 55 55 54 54 52 37 39 35 39 36 38 43 40 46 43 34 39 28 29 32 37 38 42 49 51 50 52 58 62 70 71 60 57 60 65 64 55 46 41 35 29 27 22
51 52 54 53 53 50 38 33 34 34 49 53 59 64 63 51 44 40 33 25 30 22 37 43 53 47 44 46 52 59 67 74 73 53 57 66 71 62 49 49 40 41 35 30 25
50 51 52 51 51 35 32 33 44 32 44 47 46 43 35 23 39 41 29 28 28 27 27 37 42 39 45 48 55 54 57 66 71 65 53 63 71 67 57 51 55 44 31 22 14
48 49 49 51 33 36 31 44 45 31 42 42 39 36 11 23 39 38 35 29 29 28 34 46 47 50 51 53 46 59 49 56 56 55 65 53 81 67 62 64 55 45 34 26 16
47 46 45 37 34 29 37 47 39 31 37 35 31 29 17 7 26 34 34 32 33 32 29 34 42 41 49 46 39 50 40 40 43 49 57 57 66 69 59 58 66 61 36 29 21
46 44 42 32 31 35 44 42 30 35 35 33 29 26 19 27 26 29 28 31 31 34 37 44 42 43 43 49 38 38 38 42 44 46 60 56 51 57 60 64 69 64 43 34 28
45 42 39 34 31 39 42 29 32 34 37 34 31 25 25 26 36 23 37 38 36 35 41 43 45 46 42 44 41 37 40 52 53 52 50 44 53 55 59 65 64 54 47 38 33
43 41 37 36 37 39 31 29 38 34 35 37 35 29 28 28 31 28 29 28 32 34 37 41 50 38 36 35 40 38 37 39 47 47 51 51 53 57 54 58 58 52 46 40 35
41 35 34 34 33 30 28 39 37 32 37 41 35 30 33 33 27 25 28 28 29 33 34 35 34 37 35 33 34 35 34 35 40 45 53 50 47 44 55 62 59 54 47 42 33
33 33 34 35 25 31 33 42 37 33 37 34 33 32 33 35 27 26 27 31 31 34 32 33 37 36 35 33 37 33 28 39 43 52 56 52 54 60 79 80 57 52 45 38 33
34 34 35 29 30 34 41 43 41 36 34 33 33 31 32 31 27 28 30 28 32 31 30 32 34 37 35 38 41 40 41 40 38 42 53 61 55 63 73 70 52 46 42 37 32
35 41 37 32 38 38 40 39 40 37 33 32 29 30 30 28 28 26 25 28 38 31 30 36 34 38 36 35 39 39 42 41 45 48 48 48 51 60 62 57 50 46 41 35 30
37 39 36 36 45 44 43 45 42 38 34 32 30 29 27 27 27 22 22 29 33 29 30 36 37 36 38 40 41 43 48 42 39 40 48 51 54 56 57 55 49 43 38 34 31
41 42 43 41 42 40 42 46 49 40 34 29 29 26 27 28 28 20 18 27 32 30 31 32 35 34 39 42 40 41 48 47 41 47 47 49 57 62 60 52 45 41 38 34 31
43 46 41 45 52 41 40 42 48 42 36 31 30 30 29 31 27 25 21 21 29 33 34 33 35 39 39 33 32 36 42 46 45 42 44 47 54 56 53 45 40 37 36 34 32
45 42 39 40 37 39 42 46 47 51 40 38 29 29 30 33 34 28 15 22 22 35 35 38 31 28 31 32 34 37 42 42 43 43 43 48 50 46 46 44 41 38 36 35 31
45 43 40 41 39 36 48 44 48 46 39 36 18 22 25 25 27 24 25 24 24 27 31 33 27 29 27 37 32 36 41 40 40 44 43 50 47 44 48 46 42 38 35 33 31
Wind_Direction
285 286 287 288 290 292 294 295 296 294 294 291 292 294 290 290 283 287 266 261 258 248 257 266 271 267 264 279 288 299 292 291 294 317 317 341 340 342 349 355 354 5 360 8 85
279 280 282 285 288 290 292 292 292 292 292 291 290 291 290 292 281 270 270 257 255 255 253 259 269 267 269 280 286 288 292 296 303 312 315 332 329 343 340 341 348 354 357 37 84
274 279 281 282 286 287 288 290 290 290 291 289 289 287 288 289 286 292 281 266 254 255 259 264 269 265 269 278 283 290 289 304 301 319 324 334 337 342 341 341 354 3 17 45 73
268 271 279 284 284 281 284 286 288 287 290 289 289 288 285 299 297 287 305 296 265 262 262 266 268 267 269 276 283 288 292 297 309 328 328 334 342 340 345 343 342 356 38 52 71
272 273 275 278 281 282 279 282 284 285 286 288 287 289 298 293 275 285 301 293 275 272 265 264 267 268 267 277 284 286 292 300 304 325 326 334 331 334 337 336 346 12 42 45 55
276 276 276 277 277 278 275 276 280 280 281 282 283 287 302 286 283 281 279 278 275 270 269 270 271 270 272 278 284 291 293 299 304 316 323 324 324 329 334 340 348 2 26 24 29
279 279 279 278 277 276 273 271 271 271 271 274 281 300 296 235 286 262 265 273 272 269 267 269 271 275 276 282 287 294 291 297 303 313 316 320 314 322 327 338 339 345 356 353 354
283 282 282 281 279 277 274 271 268 268 265 274 295 303 289 291 281 257 267 265 267 268 267 270 274 275 276 284 290 290 297 293 305 310 314 318 310 321 327 329 326 334 338 338 340
285 286 285 284 282 280 279 273 269 291 304 310 304 297 281 280 280 271 269 265 270 273 273 279 281 280 281 280 282 290 288 293 299 311 312 310 311 319 332 327 325 327 328 328 338
288 290 288 287 285 284 285 275 0 1 339 316 294 288 285 278 282 272 267 269 277 278 282 279 283 281 283 280 277 284 288 292 295 310 310 306 307 316 323 323 321 321 321 320 326
288 292 289 289 286 289 303 328 325 337 313 304 293 279 286 277 287 285 277 278 285 289 282 285 281 281 287 287 288 290 291 291 295 307 308 307 307 313 317 320 319 320 317 319 325
290 291 291 289 287 289 325 331 340 346 294 268 237 249 256 276 277 279 286 278 278 283 284 282 277 287 295 296 293 292 291 291 296 312 311 310 309 319 326 326 325 323 322 320 325
288 290 292 291 288 309 331 330 311 356 312 285 279 286 291 299 278 272 293 293 290 279 288 285 285 296 297 298 296 298 298 296 297 307 314 312 310 318 329 331 333 334 334 331 321
288 292 289 290 302 303 318 302 306 347 306 309 303 245 78 295 280 277 285 296 299 291 288 285 285 289 293 294 303 299 306 305 305 309 307 321 308 321 329 334 344 346 345 344 352
289 295 298 304 299 304 300 292 305 332 306 309 319 340 44 356 300 293 284 289 291 297 303 294 290 297 296 303 312 308 316 319 320 316 316 320 316 319 336 341 341 345 355 359 8
287 292 297 308 307 292 290 294 309 297 297 307 328 323 327 289 298 312 312 297 300 297 297 291 297 299 299 298 309 316 317 319 321 323 316 325 328 329 335 336 336 346 1 4 11
285 288 292 302 295 290 290 302 290 286 292 292 305 328 316 307 290 322 296 299 288 296 295 298 297 297 297 300 306 310 314 311 313 318 321 336 333 332 339 341 344 353 0 6 8
286 288 290 286 283 288 288 289 275 286 287 289 295 307 313 315 309 313 313 308 305 300 305 305 300 312 313 305 308 310 308 311 316 319 321 329 330 335 348 351 354 359 2 7 9
285 291 293 288 283 286 277 268 271 282 288 282 289 302 302 308 318 320 323 316 313 309 310 310 309 317 325 322 323 320 314 322 323 325 323 330 337 345 349 348 353 357 2 4 10
287 286 282 284 284 275 268 265 271 283 286 292 290 301 304 303 308 322 324 321 309 319 312 312 307 316 318 323 335 327 341 325 328 322 322 330 334 333 326 332 350 356 2 10 18
274 269 274 282 277 265 261 263 266 279 285 290 293 299 311 310 316 313 322 335 322 321 322 314 312 311 320 323 322 322 325 332 338 334 324 325 333 341 337 341 356 3 8 14 22
265 260 269 273 259 264 261 264 268 274 287 289 305 307 307 315 313 318 331 341 316 313 327 309 313 310 314 327 331 340 331 336 329 329 334 335 336 347 351 359 5 9 15 25 36
258 260 270 265 256 257 261 260 262 268 279 286 296 309 316 316 313 332 355 0 328 322 324 307 317 318 317 317 328 331 331 338 344 342 337 335 336 352 358 1 8 15 24 28 33
255 255 258 260 259 260 258 259 253 266 274 288 291 307 313 314 316 328 3 353 327 321 315 318 327 331 321 321 328 332 332 331 338 334 337 341 340 346 353 1 12 20 23 26 28
252 254 257 256 251 258 261 264 252 257 269 281 288 295 303 297 309 312 340 7 334 317 317 329 335 331 337 345 351 346 341 344 350 352 348 350 350 355 2 11 18 22 23 23 24
249 255 256 260 264 252 260 259 256 251 263 269 283 292 301 296 295 300 342 344 354 294 311 299 346 353 356 358 4 360 356 359 1 1 1 358 359 9 14 17 16 18 20 18 21
252 255 256 257 258 257 256 258 255 255 264 269 283 300 304 310 310 312 315 325 332 338 334 330 354 347 354 339 352 348 354 0 5 4 4 359 5 11 9 12 16 18 19 19 21